Theta_e
320 319 321 320 323 324 324 330 324 323 328 322 318 321 318 318 319 316 317 317 318 318 317 322 323 318 320 321 322 325 323 329 328 319 318 324 332 336 339 339 339 341 341 341 340 341 340 340 341 339 339 338 336 334 335 337 338 338 337 338 339 338 338 338 339 339 339 338 337 337 336 336 334 333 333 332 330 327 325 326 326 323 321 316 311 307 305 308 311 314 312 311 317 322 325 328 329
320 319 322 322 323 322 325 329 326 326 328 318 315 322 318 318 319 318 321 318 319 322 322 327 329 325 327 328 326 328 325 328 325 318 325 330 333 338 338 337 337 340 341 341 340 341 341 341 341 340 339 337 337 336 336 337 338 338 338 338 339 339 339 338 338 338 338 338 337 336 336 336 335 333 332 331 329 326 326 327 324 321 319 313 307 306 306 308 310 314 315 314 319 324 328 328 329
320 321 321 323 322 323 333 329 322 327 328 319 320 326 318 317 318 320 321 318 321 322 321 323 328 323 322 328 326 325 324 329 329 324 329 331 333 337 339 338 336 340 341 340 340 341 342 342 342 340 338 337 338 337 336 337 337 338 338 338 338 339 339 339 338 338 338 338 337 336 336 335 335 333 331 330 328 326 327 327 323 321 318 311 305 304 304 307 312 318 320 321 324 328 329 329 330
320 321 320 324 322 330 350 337 328 331 326 322 323 325 323 322 320 319 318 319 322 318 317 321 326 319 318 327 321 321 326 327 327 328 331 330 334 336 338 339 338 340 341 340 340 341 343 342 341 340 339 338 338 338 337 336 337 337 338 338 338 338 338 339 338 337 337 338 337 336 336 335 334 333 332 330 327 327 328 326 322 321 318 310 303 302 300 302 313 323 325 326 328 328 328 328 329
320 321 319 324 325 329 338 328 328 330 319 323 322 323 332 329 321 319 317 315 316 314 315 322 326 319 320 328 322 324 327 322 322 327 331 332 334 335 338 340 339 341 341 340 340 342 342 342 342 340 339 338 338 337 336 336 336 337 336 337 337 337 338 338 338 337 337 337 337 336 335 334 333 333 332 330 328 328 328 326 322 320 316 308 302 301 300 299 308 322 326 327 328 327 328 328 329
321 319 318 320 318 318 322 318 321 321 318 325 323 323 332 328 321 320 317 313 315 315 316 321 327 325 329 330 325 328 327 324 326 328 331 333 334 335 340 341 341 342 341 341 340 341 342 342 341 340 340 339 338 337 336 336 336 337 336 336 336 337 338 337 337 336 336 336 336 335 334 333 332 333 332 330 328 329 328 326 322 320 315 307 303 300 300 299 304 318 325 327 327 327 328 328 329
320 320 324 324 319 319 327 323 321 320 316 318 321 322 325 325 321 318 315 314 316 316 320 324 325 326 329 325 322 326 325 326 329 330 332 333 334 336 340 341 342 341 340 342 340 342 342 341 341 340 340 339 339 338 337 336 335 337 337 336 335 336 337 336 335 335 335 335 335 334 334 333 333 333 332 331 329 329 328 325 322 319 314 305 301 300 300 300 305 316 323 325 326 326 327 328 328
320 322 327 333 330 329 333 324 321 322 316 313 316 320 322 325 319 315 315 316 314 316 324 325 321 322 322 319 323 325 320 324 329 332 332 334 335 336 339 341 342 341 341 341 341 342 341 341 342 340 340 340 339 339 338 336 334 335 336 336 336 336 335 335 334 334 334 334 335 334 334 333 333 333 333 331 330 329 328 325 322 319 313 305 300 300 300 301 309 316 320 323 325 325 326 326 326
316 318 326 333 330 331 331 319 317 318 317 316 315 317 321 321 315 313 316 316 315 318 323 320 316 319 320 323 330 324 318 324 330 332 333 335 336 336 338 341 343 341 340 341 341 341 341 342 342 341 341 340 340 339 338 337 335 333 334 336 336 335 335 334 333 333 333 333 333 333 333 332 333 333 333 332 330 330 328 325 322 319 313 306 299 299 300 304 313 317 319 322 324 325 325 325 325
316 318 325 332 328 325 322 317 320 320 316 318 316 317 319 316 313 313 316 315 315 319 320 316 318 321 322 328 330 321 317 324 330 333 335 336 336 336 337 340 342 341 340 341 341 341 341 341 341 342 341 340 340 340 339 337 336 333 332 334 334 334 334 334 332 332 332 332 331 331 331 332 333 333 333 332 331 330 329 325 322 319 315 309 301 299 300 303 311 317 320 321 323 324 324 323 324
322 324 332 339 331 321 320 319 322 322 318 319 318 318 318 315 314 314 316 315 314 318 317 315 324 328 322 325 326 318 315 323 331 334 335 337 336 337 337 340 342 341 341 340 341 341 341 341 341 342 342 341 340 340 340 338 337 335 332 332 331 331 332 332 332 332 332 332 331 330 330 332 333 333 333 333 331 330 328 325 323 319 316 311 303 299 300 301 305 313 318 320 321 322 322 322 323
322 329 344 343 329 323 325 323 318 324 323 319 318 316 316 314 314 315 317 316 315 317 316 313 320 324 323 326 323 314 314 324 331 334 336 336 336 337 338 340 342 341 340 340 341 341 341 341 341 341 341 342 341 340 340 339 338 336 334 331 330 329 330 331 331 332 333 333 332 331 331 332 333 333 333 333 332 331 329 325 323 320 317 313 306 300 299 300 302 307 312 315 317 319 320 321 322
329 336 348 329 319 324 325 322 318 324 324 320 318 313 311 313 315 317 318 317 315 316 313 310 314 319 322 324 319 311 313 325 331 333 336 336 336 337 338 340 341 340 340 340 342 342 341 341 341 341 341 341 341 341 340 339 339 337 335 333 332 330 330 330 331 332 333 334 333 333 333 333 333 332 333 333 332 331 329 326 323 321 319 317 313 306 301 300 300 302 305 308 311 314 316 317 318
330 337 345 324 315 322 322 320 319 319 319 322 320 313 312 313 316 317 317 317 315 315 311 307 311 319 319 317 318 317 314 323 331 333 334 338 338 336 339 341 341 340 339 339 341 342 341 341 340 340 341 342 341 341 341 340 339 338 336 334 333 332 332 331 331 332 333 333 333 334 334 333 333 332 333 333 332 331 329 327 324 322 321 321 318 315 310 307 305 303 302 301 303 306 308 309 309
322 330 338 330 317 319 320 318 321 319 320 322 316 314 315 312 313 314 315 317 314 312 310 307 310 315 317 317 320 319 313 322 331 332 333 337 338 338 339 339 341 341 339 338 339 341 342 341 340 338 339 341 341 340 340 340 339 339 337 335 334 334 333 333 332 332 333 333 333 334 334 334 333 333 332 333 332 330 329 327 324 323 322 322 322 320 318 316 314 311 308 303 300 300 302 303 302
322 332 338 332 319 317 317 317 320 319 320 322 315 313 316 312 311 314 312 313 313 311 313 313 310 312 315 316 315 311 311 323 330 330 332 336 337 338 338 338 340 340 339 337 338 340 339 337 338 339 337 339 341 339 340 340 339 339 339 336 334 334 334 334 334 333 333 333 333 333 334 334 334 333 333 332 332 331 330 328 325 323 323 323 323 322 320 319 317 315 313 310 305 301 300 300 299
327 340 340 328 321 320 318 318 319 321 323 322 316 314 317 314 311 312 308 311 316 315 316 315 309 309 312 312 310 308 313 324 329 329 331 334 336 336 336 338 338 338 338 337 337 338 338 335 335 336 336 338 341 340 340 340 339 339 339 337 336 335 334 335 335 334 333 333 333 333 334 334 334 333 332 333 332 331 330 329 326 324 324 324 323 323 322 320 318 316 313 313 310 307 304 302 301
339 341 332 324 324 325 324 321 318 321 323 319 316 316 318 317 314 312 310 315 318 314 316 315 312 310 310 310 310 311 317 325 328 328 330 331 333 334 334 335 336 336 336 335 336 336 336 335 334 334 335 337 340 341 339 339 340 339 338 338 338 336 334 335 335 335 334 334 333 333 333 333 334 334 333 332 332 331 330 329 327 325 325 325 324 324 323 321 319 316 314 312 311 310 309 307 306
340 336 329 331 329 322 321 323 318 316 318 318 317 315 316 316 316 312 312 317 316 315 316 316 318 316 312 312 312 314 319 326 328 326 328 328 330 332 332 333 334 335 334 334 334 334 335 333 333 334 334 335 336 338 339 339 339 339 339 338 338 337 335 335 336 335 334 334 334 333 333 332 334 334 333 332 332 331 331 330 329 326 326 325 324 324 323 322 320 317 315 313 311 310 310 309 308
326 331 332 333 330 321 317 321 321 317 316 319 317 314 315 315 314 312 314 319 316 319 321 317 321 322 318 314 312 316 322 325 325 325 326 325 327 329 330 330 331 333 332 333 333 333 334 333 332 333 334 334 333 336 339 339 338 337 338 337 338 338 336 336 336 335 334 334 334 334 333 332 333 333 332 332 332 332 331 330 329 328 327 325 325 324 323 322 320 318 317 315 313 312 311 311 311
319 326 330 325 322 319 317 319 321 318 315 318 318 314 315 313 312 313 315 318 317 321 322 318 323 325 322 316 311 316 322 323 321 321 322 321 323 325 327 328 328 330 330 331 332 332 332 331 330 331 333 334 334 335 338 338 337 336 337 336 337 338 338 337 336 335 335 334 334 334 333 332 332 332 332 332 332 332 331 331 330 328 327 326 325 324 324 323 321 319 318 317 315 314 314 314 314
317 317 319 319 318 316 318 319 317 316 313 316 318 316 315 312 312 316 316 318 320 320 318 318 321 321 320 316 311 313 317 319 318 316 317 318 318 320 322 323 324 326 327 328 329 330 329 329 329 329 331 333 334 335 336 337 335 335 337 336 334 336 337 338 337 336 335 334 333 334 333 332 332 332 332 332 332 333 332 331 330 329 328 326 325 324 324 323 322 320 319 317 315 315 315 314 314
318 316 315 317 317 315 317 317 315 315 315 317 318 315 314 314 314 315 315 316 318 314 312 313 312 310 313 312 310 314 316 314 314 314 315 316 316 317 318 318 320 320 322 323 324 325 325 325 327 328 329 330 332 334 335 335 334 334 335 334 333 334 335 336 338 337 336 335 334 334 332 332 332 331 332 333 333 333 332 331 330 329 328 327 324 324 324 323 323 321 320 317 316 316 315 315 315
324 319 316 316 315 315 316 316 315 315 316 316 315 313 314 318 316 312 315 317 317 312 305 305 304 305 309 312 311 312 313 312 314 315 315 315 316 316 315 315 316 316 317 317 318 318 319 320 322 325 328 328 329 332 333 333 335 335 333 334 333 334 335 336 337 337 336 336 335 334 332 333 331 330 332 333 333 331 329 330 330 329 327 326 324 324 323 322 323 322 320 318 316 316 316 315 314
324 318 317 317 315 318 317 315 316 315 316 314 313 315 315 317 314 312 318 319 316 312 306 305 306 308 311 317 315 308 308 311 312 314 314 314 314 314 314 314 314 314 314 314 314 314 314 315 316 319 324 326 327 330 332 333 335 335 334 335 335 336 336 336 336 336 336 336 335 334 333 333 331 330 332 333 332 329 328 329 329 328 327 325 324 324 322 321 321 321 319 318 317 316 316 315 314
318 318 320 318 317 320 317 315 318 317 316 313 314 317 315 313 311 314 321 318 312 311 312 312 313 316 316 318 314 306 306 308 309 311 312 312 313 313 313 313 313 313 313 313 312 312 312 313 314 315 319 323 326 328 331 333 333 333 334 335 336 335 333 335 336 335 335 335 334 334 332 332 331 331 332 332 332 330 329 329 328 327 327 325 324 324 322 320 320 319 319 318 317 316 316 314 313
316 320 320 318 320 321 317 316 319 317 316 315 314 318 316 313 313 315 319 313 309 315 317 312 315 320 317 316 312 306 306 307 309 310 310 310 311 311 312 312 312 312 312 311 310 310 311 312 314 314 316 320 324 327 329 332 331 332 334 334 334 333 331 334 335 334 334 333 334 333 331 331 332 332 332 332 331 329 329 329 327 327 327 326 325 325 323 321 320 320 319 318 318 317 315 313 312
315 319 318 320 323 321 317 317 317 315 315 315 314 315 315 313 314 317 316 309 309 320 321 312 315 318 314 316 314 307 305 308 309 309 309 310 310 311 312 312 312 313 312 310 308 308 310 312 313 315 315 318 323 326 327 330 332 331 332 333 333 332 332 334 335 334 333 332 333 333 331 332 333 332 332 331 330 329 329 329 327 326 327 327 327 326 325 322 321 320 319 318 318 316 314 312 310
315 318 318 323 329 322 316 317 316 314 315 316 314 315 317 315 315 317 314 308 308 317 322 315 314 315 314 314 313 308 304 307 308 307 309 310 311 311 311 312 312 312 310 309 308 308 311 313 314 316 316 319 323 325 327 330 331 330 331 332 332 332 332 333 333 333 332 332 332 331 331 332 332 332 331 330 329 328 328 327 327 326 327 327 326 326 325 322 321 320 318 318 317 316 313 310 308
317 317 318 324 328 324 315 313 314 313 315 316 314 317 323 322 318 315 311 309 311 316 319 316 314 314 314 313 313 311 305 304 306 306 309 310 310 310 310 312 311 310 309 308 309 310 313 314 315 318 318 319 322 325 327 329 330 331 331 331 331 331 330 331 331 332 332 331 330 330 331 331 331 331 330 330 329 328 327 326 326 327 326 326 325 324 323 321 320 320 318 317 316 315 312 308 306
320 314 323 327 319 326 323 314 315 313 313 314 314 318 322 324 322 315 309 309 314 319 318 314 313 313 312 312 311 311 306 303 305 306 309 309 309 309 310 312 311 310 308 309 310 311 314 315 317 319 319 320 323 325 327 329 329 330 330 330 330 330 328 329 330 331 331 330 330 329 330 330 330 330 330 329 328 327 327 326 326 326 325 325 324 323 322 321 320 319 318 317 315 313 310 306 305
328 314 326 329 316 330 332 317 316 315 313 312 314 319 319 321 320 313 308 308 312 317 317 312 313 312 311 311 309 310 307 303 304 306 307 308 308 308 310 312 311 310 309 310 311 311 314 316 318 319 320 321 323 325 327 327 327 327 329 328 329 329 328 328 328 328 329 329 329 328 327 328 329 329 328 328 327 327 326 326 325 324 324 324 322 321 320 320 319 318 317 317 315 311 308 305 303
333 318 322 329 319 326 326 316 315 315 314 312 313 320 322 321 318 311 307 308 310 314 315 313 312 310 309 309 308 308 307 305 304 304 306 307 307 307 310 312 311 310 309 310 311 312 314 316 318 319 320 321 323 325 325 326 326 326 327 327 328 328 326 327 327 327 328 328 328 327 326 327 328 327 327 327 326 326 326 325 324 322 322 321 320 319 319 318 318 317 316 316 315 311 306 303 299
331 320 320 327 324 321 322 322 316 311 314 314 314 316 318 319 317 314 311 309 310 315 317 314 311 309 308 307 307 307 307 308 305 303 304 306 306 307 310 312 311 310 309 310 312 313 314 316 317 319 320 321 322 324 324 323 323 323 324 326 327 326 325 326 326 325 325 326 326 326 325 326 327 326 325 325 325 325 324 323 321 319 320 320 319 319 319 318 317 316 315 313 313 311 306 302 299
333 326 324 326 322 318 322 325 316 311 313 315 316 316 316 316 314 316 317 311 312 318 315 312 310 309 308 307 307 307 306 307 305 303 304 305 306 306 309 312 311 309 310 311 312 313 314 316 316 317 319 319 320 322 322 321 321 321 322 323 323 321 323 324 323 323 324 324 324 323 324 324 325 325 324 323 324 323 322 321 319 318 319 319 319 318 316 314 313 314 313 311 309 307 304 300 298
332 333 334 330 323 321 324 326 320 314 313 316 316 316 316 316 314 315 317 312 312 315 312 310 310 308 308 307 306 306 306 306 304 303 304 305 306 306 308 311 309 309 311 312 312 312 314 315 315 315 317 317 318 319 319 319 320 319 319 320 319 318 320 321 320 322 323 323 323 322 323 323 322 323 322 322 322 321 319 317 317 317 316 317 317 314 310 309 310 311 310 309 306 302 299 298 298
325 329 330 327 324 323 324 325 322 314 313 321 319 316 316 315 315 314 315 314 313 314 313 312 311 309 308 308 307 306 306 305 303 303 303 304 305 305 308 310 309 309 311 311 311 312 313 314 314 314 315 315 316 317 316 318 318 317 318 317 316 316 317 318 318 320 321 322 322 321 321 321 321 320 320 320 319 319 317 315 316 315 313 313 311 307 304 305 308 309 308 306 304 300 297 297 297
322 325 323 323 324 323 321 319 318 313 314 322 320 315 316 314 314 312 313 316 316 316 315 314 312 310 309 308 308 307 306 305 303 302 301 303 304 304 307 310 309 309 310 310 310 312 312 313 313 314 315 314 314 315 314 316 316 315 318 317 316 315 314 315 317 317 319 320 320 320 320 320 319 319 318 317 317 317 316 314 313 309 307 306 304 303 303 304 306 307 307 304 302 300 297 296 297
321 324 320 322 324 321 321 318 316 313 314 322 322 316 316 315 313 312 311 313 312 312 313 313 313 312 310 309 308 307 307 307 306 302 299 301 302 303 306 309 309 309 309 309 310 311 311 311 312 313 314 313 312 313 313 315 314 314 317 315 315 314 312 314 316 316 318 318 317 318 318 318 318 318 316 316 316 315 313 310 305 301 301 301 301 303 304 304 305 305 306 304 302 300 297 296 298
320 323 321 323 323 320 322 320 315 313 314 319 320 316 315 314 314 313 312 312 311 311 311 310 310 311 311 310 310 308 308 308 307 304 300 299 301 303 306 308 308 309 309 309 309 309 310 311 311 311 311 311 311 311 312 313 312 313 314 313 313 312 311 313 313 313 315 316 315 316 317 316 316 316 315 314 313 311 307 302 299 297 298 297 299 303 304 304 304 304 304 305 303 300 297 297 298
322 322 320 321 322 320 321 321 318 318 318 317 317 319 322 321 317 316 318 317 314 312 312 311 309 309 309 310 310 309 308 308 307 305 301 299 300 302 304 307 308 308 308 308 308 308 309 310 310 310 309 309 310 311 311 310 310 311 310 308 306 306 307 309 309 309 312 315 314 314 315 314 314 313 311 310 308 304 300 297 296 295 295 295 296 300 303 304 304 304 304 304 304 302 299 297 297
326 325 321 319 321 321 320 319 319 324 328 319 315 324 335 332 324 319 321 323 320 316 315 315 313 310 310 309 309 308 309 308 307 305 302 299 300 301 304 307 307 307 308 308 308 308 309 309 308 308 308 309 309 309 310 310 309 311 311 308 306 304 302 304 307 308 310 313 312 312 312 310 310 310 307 304 301 298 296 294 295 294 294 293 294 295 298 299 300 301 302 301 300 300 299 295 292
326 325 320 318 317 318 319 318 319 326 330 318 313 323 331 328 323 321 324 326 326 323 321 319 316 313 312 310 309 309 309 309 307 305 302 300 300 301 304 306 307 307 307 308 308 308 308 308 307 306 307 309 308 307 308 309 309 310 312 311 310 310 306 304 306 308 309 310 310 309 308 307 307 306 302 298 295 294 294 294 294 294 293 293 293 293 293 293 294 294 295 295 294 293 294 292 289
328 321 318 320 317 319 319 318 320 325 325 318 319 324 324 323 321 321 324 325 324 323 322 320 317 316 314 312 310 310 310 309 307 305 302 300 300 301 304 306 307 307 307 308 307 307 308 307 306 305 306 307 307 306 306 307 310 310 309 308 308 309 309 308 306 305 305 307 307 306 305 304 302 299 295 293 293 293 293 293 293 293 292 292 292 292 292 291 291 291 291 291 290 290 291 290 289
325 316 316 320 319 321 320 319 320 321 320 323 324 321 321 326 326 322 321 322 325 325 323 321 319 318 317 316 315 311 309 308 306 305 303 300 299 301 304 306 307 307 307 307 307 307 307 306 305 305 305 305 305 305 304 305 308 309 307 307 306 305 305 305 303 302 302 303 303 303 301 299 296 293 292 292 293 293 292 292 292 292 292 292 291 291 291 290 290 290 290 290 290 289 290 290 289
317 313 317 320 320 322 323 324 323 323 323 325 326 323 321 324 327 326 322 323 329 328 323 321 319 319 320 322 320 313 309 307 306 305 301 299 300 301 303 306 307 307 306 306 306 305 306 305 304 303 303 303 303 303 303 304 305 305 305 305 304 303 302 299 297 297 299 300 300 298 296 293 291 291 291 292 292 292 292 292 291 292 291 291 291 290 290 290 290 290 289 289 289 289 288 289 288
314 319 326 325 326 326 327 327 324 326 327 323 325 325 322 323 327 329 326 325 329 327 324 324 320 321 324 327 324 314 309 307 306 304 301 299 300 301 304 307 307 306 306 305 305 304 304 304 303 302 302 302 302 302 303 303 303 302 303 305 305 304 301 298 296 295 295 296 295 293 291 290 290 291 291 291 291 291 291 291 291 291 290 290 290 290 290 289 289 289 289 289 288 288 288 287 287
318 330 331 325 329 328 326 329 326 328 328 321 322 321 319 323 325 327 327 325 325 325 326 330 329 328 326 329 327 314 308 307 305 304 302 299 299 301 304 306 306 306 304 303 303 303 302 302 302 302 301 301 302 302 302 302 302 302 303 305 307 307 305 301 299 296 294 293 292 290 290 290 290 290 290 290 290 290 290 290 290 290 290 290 290 289 289 289 289 289 288 288 288 287 287 287 286
321 330 327 323 328 327 325 328 326 328 325 317 318 320 319 321 322 323 324 323 325 325 323 326 329 329 325 326 325 314 306 307 305 303 302 300 298 300 303 306 306 304 303 302 302 301 300 301 301 300 300 300 300 300 300 300 301 303 304 305 306 307 307 304 300 296 292 291 290 290 290 290 289 289 289 290 290 290 290 290 290 290 289 290 289 289 289 289 288 288 288 287 287 287 286 286 286
320 324 326 325 327 331 334 332 324 323 323 316 313 319 322 323 323 321 320 318 322 324 320 318 320 322 322 318 315 311 306 305 304 302 302 301 299 299 302 305 305 303 302 302 301 301 300 299 300 300 300 300 300 300 299 298 299 302 303 304 305 305 305 302 298 295 291 290 291 290 290 290 290 289 289 290 290 289 289 289 290 290 289 289 289 289 288 288 288 288 287 287 286 286 286 286 286
317 321 325 325 328 333 337 335 328 324 327 321 314 319 327 329 324 320 319 321 323 324 320 317 316 316 315 312 309 309 308 305 303 301 301 300 298 299 302 304 305 303 302 301 300 300 300 299 299 299 299 299 300 301 299 297 298 300 301 302 303 303 303 300 296 293 291 291 291 290 290 290 290 290 289 289 289 289 289 289 289 289 289 289 288 288 288 287 287 287 287 286 286 286 285 286 285
317 320 323 324 326 327 323 324 323 322 325 325 320 322 327 326 323 320 322 324 324 323 319 318 319 316 314 314 311 310 310 305 302 302 301 299 298 298 301 303 304 303 302 301 300 300 300 299 300 300 300 300 300 300 300 298 297 298 301 302 302 301 300 297 294 292 291 291 291 290 290 290 290 290 289 289 289 289 289 289 289 289 289 288 288 288 287 287 287 287 287 287 286 285 285 285 285
318 319 323 321 318 320 320 318 315 316 320 324 324 325 324 323 322 320 321 323 322 322 322 321 321 318 317 318 314 312 311 305 302 301 300 299 297 298 300 302 303 303 302 300 299 299 300 300 300 299 300 300 299 299 299 299 297 297 300 302 301 299 298 295 293 291 290 291 290 290 290 290 289 289 289 289 289 289 289 289 289 288 288 288 287 287 287 287 286 287 287 287 286 285 285 285 285
320 322 323 317 314 320 325 324 322 322 324 325 323 323 322 323 322 320 319 320 321 321 322 322 320 320 320 318 314 314 311 305 302 301 299 298 297 297 300 301 302 302 302 301 300 299 299 300 300 299 298 298 298 298 297 297 297 298 300 301 299 298 297 295 292 291 290 290 290 290 289 289 289 289 289 289 288 288 288 288 288 288 288 287 287 286 286 286 286 286 286 286 286 285 285 285 284
319 324 321 319 324 326 324 324 328 328 327 328 326 322 321 320 322 323 321 325 329 323 318 319 319 320 321 318 317 316 312 306 302 300 299 298 296 297 299 300 301 302 302 301 300 299 299 299 299 299 299 299 299 298 296 295 296 298 301 301 299 297 295 292 291 290 290 290 290 289 289 289 289 288 288 288 288 288 288 288 288 288 287 286 286 286 285 285 286 286 286 285 285 284 285 285 284
314 317 316 318 325 325 323 324 325 327 328 329 329 325 323 323 325 326 323 327 332 327 323 322 320 320 319 316 319 321 316 310 304 300 299 298 296 297 298 300 301 301 301 301 300 299 298 298 298 298 298 298 298 297 295 294 295 297 298 299 297 295 292 290 289 289 290 290 289 289 289 289 289 288 288 288 288 288 287 287 287 287 286 285 285 285 285 285 286 286 286 286 285 284 284 284 283
316 318 318 318 319 321 324 323 321 327 331 330 329 325 324 328 327 327 327 328 328 329 330 329 328 324 317 315 320 323 318 311 304 300 299 297 296 296 298 299 300 300 300 300 299 298 298 297 297 297 297 296 295 294 294 294 294 295 295 296 295 293 291 289 289 289 289 289 289 289 289 288 288 288 288 288 287 287 287 287 286 286 285 285 284 285 285 285 285 285 285 285 285 284 283 284 283
318 319 319 318 319 320 322 321 320 325 327 327 328 325 324 329 326 326 332 331 326 325 325 328 334 327 316 316 321 319 316 312 304 300 300 297 295 295 297 298 299 299 299 298 298 297 297 296 296 296 296 295 294 293 292 292 293 294 294 294 293 292 289 288 288 288 288 289 288 288 288 288 288 288 288 287 287 286 286 286 286 285 285 284 284 285 285 285 285 285 285 284 284 284 283 283 283
Wind_Speed
7 6 4 4 4 2 4 6 2 2 4 2 2 1 2 3 1 1 1 2 0 1 2 1 3 3 3 3 5 6 4 3 5 4 2 3 2 5 9 7 7 10 11 11 11 11 11 12 11 11 11 10 10 10 11 11 11 11 11 11 11 11 12 13 13 14 14 15 15 16 16 16 17 17 17 17 18 19 19 19 19 19 19 18 17 17 17 17 16 15 13 13 13 14 14 15 16
6 5 4 4 5 2 1 4 3 3 5 2 2 2 3 3 0 4 5 3 2 2 2 4 6 6 5 5 5 4 2 0 4 3 1 2 3 4 7 8 9 11 13 13 13 13 12 12 11 12 11 11 10 10 10 11 11 10 10 10 11 11 11 12 12 13 13 14 14 15 15 15 15 16 16 16 17 18 18 19 19 20 19 18 17 17 17 18 18 17 16 15 15 15 15 15 17
6 4 4 3 5 4 2 4 3 1 5 2 4 3 1 1 3 5 7 6 6 5 3 3 5 4 4 5 3 2 2 0 2 1 0 2 3 2 4 8 11 13 14 14 14 14 13 13 12 12 12 12 10 9 10 10 11 11 10 10 11 11 11 11 11 12 13 13 13 14 14 14 14 15 15 16 17 17 18 19 20 20 19 18 17 17 17 17 18 18 18 17 17 16 16 16 17
6 4 3 2 3 4 4 4 2 4 3 3 3 4 1 3 6 5 6 6 5 3 0 1 3 1 3 4 1 1 0 0 2 1 0 2 2 1 4 8 12 16 16 14 15 14 14 13 13 13 12 11 10 9 10 10 10 10 11 11 11 11 11 11 11 11 12 12 13 13 13 13 13 14 15 15 16 17 18 19 20 19 18 17 17 17 17 17 17 18 18 18 18 16 16 17 17
5 7 3 4 3 2 4 3 3 4 2 4 2 4 4 5 7 5 5 3 3 2 1 1 2 1 2 2 1 1 1 0 2 1 0 2 3 2 5 8 11 17 16 15 15 13 13 13 12 12 12 11 10 9 9 10 10 10 11 11 11 11 11 11 11 11 11 12 12 12 12 12 12 13 14 14 16 16 18 19 19 18 17 18 17 17 17 17 17 18 19 19 18 17 17 17 17
4 9 9 7 4 1 3 3 2 1 4 5 3 5 5 6 6 5 3 2 2 2 2 1 1 2 1 1 1 2 2 0 1 2 1 2 3 3 6 8 10 14 16 15 14 13 13 13 12 11 11 11 10 9 9 9 10 10 10 10 10 11 11 11 11 11 11 11 11 10 10 11 12 13 13 14 15 15 17 18 19 18 17 18 18 17 17 17 17 19 19 19 18 18 18 17 17
3 3 7 7 3 2 3 3 4 2 2 4 3 4 5 6 5 4 2 1 1 0 1 1 1 4 1 1 1 2 1 1 1 1 2 2 4 4 8 9 9 11 15 15 14 13 11 11 11 10 10 10 9 8 8 8 8 10 10 9 9 10 11 10 10 10 11 10 10 9 10 10 11 12 12 13 14 14 17 17 18 18 18 18 18 18 18 17 17 18 19 19 19 18 18 17 17
4 1 2 5 3 4 4 3 3 2 1 3 3 4 5 6 5 5 2 2 2 1 1 1 1 3 1 1 1 2 2 2 2 1 2 2 4 5 8 9 9 10 13 15 14 14 13 12 11 10 10 10 9 9 8 7 7 9 9 9 9 10 10 10 9 10 10 10 9 9 9 10 10 11 11 11 12 14 15 16 17 17 18 18 18 18 18 17 17 18 18 19 19 18 18 17 17
6 3 1 4 3 3 3 2 0 2 2 4 3 4 4 4 5 3 2 1 1 2 2 3 1 0 1 2 2 3 2 2 0 1 1 2 4 6 9 9 9 9 11 14 13 13 13 13 12 11 10 10 10 9 9 8 7 7 9 9 10 10 10 10 9 10 10 9 9 8 8 9 9 10 9 10 11 13 14 15 17 17 18 18 18 18 18 18 18 18 18 19 19 18 18 17 16
5 3 2 4 3 3 3 1 1 2 3 4 3 4 3 4 5 2 2 3 1 4 3 3 2 1 2 2 3 1 1 1 2 2 0 4 5 7 9 9 9 9 10 13 13 12 11 12 12 11 9 10 11 10 9 9 8 7 9 10 10 11 11 11 10 9 9 9 8 7 7 8 9 9 9 9 10 12 13 15 16 17 18 18 18 18 18 18 18 18 18 19 18 18 18 17 16
3 4 3 4 4 2 2 3 3 3 4 4 3 4 5 5 5 1 1 3 0 2 2 1 2 2 2 1 3 0 0 0 3 4 2 5 7 8 9 10 9 9 10 11 12 11 11 11 11 11 10 9 10 10 10 10 9 8 8 9 9 11 11 11 10 9 9 8 7 7 7 8 8 8 8 8 9 11 12 14 16 17 17 18 18 18 18 18 17 18 18 18 17 17 17 16 16
2 3 4 4 3 3 4 4 3 4 6 4 1 3 3 6 4 2 3 4 2 2 2 2 2 4 3 3 4 2 1 2 3 5 4 5 8 9 10 11 11 11 11 11 11 11 11 10 10 10 10 10 10 9 10 11 10 9 8 9 9 9 10 10 10 9 8 7 7 7 8 8 7 7 7 7 8 10 12 14 15 16 17 18 18 18 18 17 17 17 17 16 16 16 16 15 14
3 2 5 3 3 3 3 5 2 2 4 3 3 2 3 5 3 7 6 4 3 4 2 4 2 3 2 3 3 4 2 4 5 6 5 5 7 9 9 11 12 11 12 11 12 12 12 11 10 10 10 10 10 10 10 11 10 9 9 9 9 9 10 9 9 8 7 6 6 7 7 7 7 7 7 7 8 9 11 14 15 16 17 18 18 18 18 17 17 17 16 16 16 15 15 14 14
3 3 5 3 2 3 4 3 1 3 3 6 3 1 2 2 3 6 7 5 4 5 1 2 3 3 1 2 3 5 4 7 7 7 7 6 7 9 10 12 12 11 12 12 13 13 12 12 11 10 9 9 10 10 10 11 11 10 10 10 10 10 10 9 8 8 7 6 6 6 7 6 6 6 7 7 7 8 10 13 14 15 16 17 18 18 19 18 18 17 16 16 16 16 16 16 15
4 3 5 4 2 1 3 2 2 5 4 5 2 2 3 0 2 4 5 6 4 3 0 1 2 2 3 3 4 5 7 10 9 9 8 7 8 10 10 11 12 11 12 13 13 13 13 11 10 10 9 9 9 10 10 11 12 12 11 10 10 10 10 10 9 8 7 6 6 6 6 6 6 6 6 7 7 7 9 12 13 14 15 17 18 19 20 20 19 18 17 16 16 16 17 17 17
3 4 5 4 2 2 4 2 3 3 5 5 1 1 4 2 1 3 3 3 3 1 2 1 1 0 3 5 4 3 9 12 11 11 10 9 9 12 11 12 12 11 12 12 12 14 14 11 10 10 9 10 11 10 10 10 11 12 11 11 11 11 11 10 10 9 8 7 6 6 6 6 6 6 6 7 7 6 8 11 12 13 14 15 17 19 20 20 20 20 19 18 17 17 17 17 17
3 4 5 3 3 4 5 4 4 4 5 5 4 1 6 1 1 1 2 4 4 1 3 2 2 1 3 3 2 3 11 13 12 12 13 12 10 12 12 13 13 12 11 10 10 11 12 13 13 12 9 10 13 12 10 10 10 11 12 12 11 12 12 11 11 10 9 8 7 6 6 6 6 6 7 7 7 7 8 10 10 11 12 14 16 18 19 20 20 20 20 19 18 17 17 18 18
5 4 4 3 4 4 6 8 7 5 3 5 4 3 7 4 2 1 1 5 4 1 3 2 4 3 3 3 2 6 12 14 14 13 14 14 13 12 12 12 13 14 12 10 9 8 10 12 12 11 10 10 13 11 9 11 11 11 12 12 12 13 13 11 11 10 10 9 8 7 7 6 7 7 7 8 8 8 8 9 9 10 11 13 15 17 18 19 20 20 20 19 18 18 18 19 19
4 3 3 3 6 5 6 8 7 3 2 5 3 2 4 5 4 3 2 2 3 0 3 4 6 5 3 2 4 8 14 15 14 15 15 15 14 15 14 12 12 12 13 13 12 11 12 14 12 8 8 10 12 11 10 12 13 12 11 11 12 13 13 12 10 11 11 10 10 9 8 7 7 7 7 8 9 9 9 8 8 9 10 12 14 16 17 18 19 19 19 19 19 19 19 21 21
2 4 3 5 6 4 4 7 7 4 4 6 4 2 2 3 3 2 3 2 1 4 5 1 4 8 6 4 5 10 14 15 15 15 16 15 15 16 16 15 13 12 13 13 13 13 12 14 15 10 8 9 13 14 12 13 13 12 11 11 11 10 12 13 11 10 10 11 11 10 10 8 8 8 8 9 10 10 9 9 8 8 9 11 13 15 16 16 18 18 18 18 19 20 20 21 21
2 4 3 5 3 1 3 6 6 5 4 6 5 3 1 3 2 2 5 4 4 7 8 8 9 9 8 7 6 10 14 14 15 15 15 15 15 15 15 15 15 15 15 14 14 14 14 15 17 15 12 10 12 15 12 13 16 14 11 10 10 8 11 14 12 11 11 11 11 11 11 10 9 9 9 10 10 12 12 10 9 8 9 11 12 14 16 15 15 16 17 18 19 20 20 21 21
3 1 3 4 3 1 2 5 4 4 4 5 6 5 3 2 1 3 8 6 6 6 7 8 9 8 10 9 9 10 12 13 14 15 16 16 15 15 15 14 14 15 16 17 17 17 17 18 19 19 18 13 12 14 12 12 17 17 12 12 12 11 12 13 13 13 12 11 11 12 12 11 11 10 10 13 13 14 14 13 11 10 10 12 12 14 15 14 13 13 15 18 19 19 20 20 20
3 1 1 2 2 1 1 2 3 5 6 6 5 3 3 3 1 2 7 9 7 4 5 7 7 7 11 11 10 9 10 12 14 16 17 16 16 15 15 14 14 14 15 16 17 18 18 18 19 20 22 20 15 14 14 12 14 17 16 16 16 14 12 12 14 15 15 12 11 12 12 12 13 11 12 15 16 18 19 17 15 13 12 13 13 13 15 14 11 10 13 17 18 18 19 20 20
5 1 2 0 2 2 2 2 2 3 5 5 3 2 3 5 4 1 5 10 5 3 4 3 5 6 11 10 9 9 10 12 14 16 16 16 16 15 14 13 13 14 14 15 16 17 17 17 19 20 22 24 21 16 15 15 15 17 18 18 18 17 15 15 16 16 15 14 13 13 11 12 13 12 12 14 15 17 21 21 17 16 15 15 14 13 13 15 12 11 13 16 18 18 19 20 20
5 2 2 0 1 4 3 3 4 3 1 1 3 2 2 5 3 0 8 10 2 1 2 4 5 8 9 8 7 8 9 11 13 14 15 15 14 14 14 13 13 13 14 15 16 16 16 17 18 19 21 22 22 19 17 17 17 17 17 21 22 21 18 17 18 15 15 15 15 13 10 10 11 12 12 13 12 13 19 21 19 18 16 16 15 13 13 15 15 14 15 17 18 18 19 19 20
1 3 1 1 2 4 3 2 4 3 1 2 2 2 4 2 1 4 9 6 2 3 5 4 6 7 6 6 7 7 8 10 13 13 14 14 14 14 14 13 13 13 14 15 15 15 16 17 17 18 19 20 21 22 19 16 18 17 16 19 20 19 17 17 18 15 16 15 13 12 11 11 10 11 12 12 12 13 17 19 18 18 17 15 14 14 14 14 15 16 16 17 18 19 20 19 20
2 3 2 2 3 4 2 1 3 2 1 1 3 5 4 4 1 5 6 1 4 5 5 2 5 6 6 5 5 8 9 11 13 13 13 13 14 15 15 14 14 13 14 15 14 13 13 14 15 16 17 18 21 24 21 17 19 19 15 15 14 13 15 18 17 16 17 15 15 15 14 13 12 12 13 13 14 15 16 16 16 19 18 15 14 13 14 15 14 15 15 17 17 19 21 20 20
1 2 2 3 6 4 1 0 3 1 1 4 5 3 4 4 1 6 3 2 3 5 5 3 4 5 5 5 5 6 9 11 13 13 15 17 17 17 16 16 15 13 13 13 11 10 9 8 9 11 13 17 20 23 23 17 19 21 17 14 13 14 16 18 17 17 18 16 14 14 12 14 15 14 14 15 14 14 15 15 16 19 17 14 12 11 12 14 14 14 15 16 17 19 21 21 21
1 3 1 5 8 5 2 1 3 1 2 4 5 2 4 3 7 6 1 2 3 4 5 4 5 5 4 5 5 5 9 11 13 15 18 19 18 18 17 15 13 13 12 10 9 7 6 6 7 7 10 15 18 22 23 18 17 19 18 16 15 16 18 20 19 17 18 17 14 13 13 16 17 16 15 14 13 13 14 13 15 16 15 13 11 10 12 14 14 15 17 17 18 20 22 23 22
1 3 2 4 7 5 4 2 0 3 3 3 3 3 6 8 12 6 1 5 5 3 6 5 5 5 5 5 4 6 8 11 14 18 19 18 17 16 15 14 12 11 10 8 7 6 6 6 7 8 11 14 17 20 22 21 18 17 18 17 17 17 19 22 21 20 19 18 16 16 17 17 18 17 15 13 13 13 13 12 13 14 13 13 13 14 15 16 16 17 19 20 21 21 23 24 23
1 1 2 3 2 4 6 2 3 4 2 1 4 3 7 9 11 5 1 6 7 6 8 6 6 5 5 5 5 6 8 12 16 18 19 17 16 15 13 13 12 10 8 7 6 6 7 8 9 11 12 14 16 19 21 22 22 21 19 18 17 16 19 20 20 20 19 16 15 17 19 19 19 17 14 14 14 13 13 13 13 13 14 13 15 16 16 17 18 19 20 21 23 23 25 25 24
3 1 3 3 1 5 9 3 5 4 1 1 4 3 7 8 9 5 1 5 6 7 7 6 7 7 7 6 6 6 7 12 16 18 19 18 16 15 14 14 12 10 9 8 7 8 9 10 12 12 14 16 17 19 21 23 23 23 22 20 18 16 18 19 19 19 17 14 13 17 19 19 18 16 15 15 14 14 14 14 14 15 16 15 17 17 17 17 18 19 20 21 24 26 26 26 26
4 1 3 2 2 3 6 3 3 1 1 0 2 3 5 5 5 5 0 6 5 6 8 8 8 8 7 6 6 7 6 9 13 18 20 19 18 16 15 14 13 11 10 9 9 10 11 12 14 14 16 18 19 19 21 23 23 22 23 22 21 19 18 19 19 18 17 14 14 16 17 17 16 15 16 15 14 14 14 15 16 17 17 16 18 18 17 17 17 19 21 22 23 26 27 28 28
4 2 2 3 3 2 3 4 3 1 2 2 3 4 7 7 6 3 2 6 6 7 10 9 8 7 7 6 7 7 7 8 11 17 21 20 19 17 16 15 14 12 10 11 11 12 13 14 16 17 18 19 20 20 21 23 23 23 22 20 21 22 21 18 18 17 16 16 17 18 16 16 14 13 15 15 14 15 15 17 18 18 17 17 18 16 15 16 16 17 21 23 23 25 28 29 29
3 3 2 2 2 2 4 5 2 2 1 3 3 5 11 13 11 7 5 6 7 10 10 8 8 7 7 7 8 8 8 10 12 16 20 21 20 18 17 16 15 13 12 13 13 14 15 15 17 18 19 20 21 22 22 22 21 21 19 19 20 21 21 20 19 18 17 16 18 19 16 15 15 15 15 13 13 16 18 19 19 18 17 16 15 13 14 15 17 18 21 25 26 26 28 30 31
6 5 4 4 3 3 5 6 5 3 2 4 7 7 10 12 13 11 6 6 7 9 8 7 8 7 7 8 9 9 11 12 12 15 19 21 21 19 18 17 16 15 14 15 15 16 17 18 19 19 20 21 22 22 22 22 20 19 18 20 21 20 20 21 20 19 19 17 17 19 17 16 16 15 15 14 15 18 19 20 19 17 15 14 13 14 16 17 19 21 23 27 29 31 31 31 30
6 5 4 4 3 4 6 4 6 2 3 6 8 8 10 11 13 13 4 5 6 9 9 10 10 9 9 10 11 11 12 10 9 14 19 22 23 21 19 19 17 17 17 18 18 18 19 20 21 21 21 20 21 23 23 23 23 23 22 22 22 21 21 21 20 19 19 18 17 18 17 16 15 16 16 17 18 18 19 20 17 16 15 15 15 16 18 19 21 24 27 30 31 33 32 29 28
5 5 3 2 3 6 7 3 4 1 2 6 4 5 11 11 13 13 3 4 8 10 11 13 13 12 10 11 13 12 9 5 6 12 18 21 23 22 21 21 20 20 20 20 20 21 21 21 22 22 22 22 22 23 24 24 24 24 24 23 23 22 21 21 20 20 19 19 19 18 16 16 16 17 18 19 19 19 19 19 18 19 18 17 18 19 20 22 25 27 29 31 31 32 29 27 26
4 3 2 2 3 5 6 4 5 1 3 4 4 5 9 11 13 13 9 8 10 10 12 14 14 12 11 11 13 11 9 7 7 10 15 21 23 23 23 23 23 23 22 22 22 23 23 23 23 23 23 24 24 24 23 23 22 21 22 23 24 23 21 20 21 21 20 19 20 19 17 16 16 18 19 20 20 21 21 22 22 21 20 19 21 23 24 26 27 27 27 28 29 28 25 23 17
2 3 3 3 3 2 4 4 4 0 3 2 3 5 7 9 11 12 12 10 9 10 13 14 12 12 13 12 10 10 12 11 9 8 12 18 22 24 25 24 24 23 23 24 24 24 25 25 25 25 25 25 25 24 23 23 22 22 22 23 23 22 22 22 21 21 20 19 21 20 18 17 18 20 22 22 22 23 23 24 24 23 22 22 22 25 26 26 27 25 24 24 26 26 21 15 10
3 5 6 5 4 6 6 4 4 3 2 3 3 6 6 7 11 12 8 4 7 10 11 13 12 12 12 11 10 12 12 11 11 10 11 16 21 25 26 25 24 24 25 27 27 26 26 26 26 25 25 25 25 25 24 24 24 24 24 24 22 22 23 22 22 22 21 21 21 21 20 20 21 23 24 24 24 25 25 25 25 24 24 23 23 25 25 25 24 23 22 21 21 22 20 15 11
5 5 10 10 8 7 5 3 5 4 4 4 3 4 6 4 7 11 5 4 7 8 8 13 13 10 10 11 14 12 9 9 10 12 13 17 22 23 24 24 24 25 26 27 28 27 26 26 26 26 25 26 26 26 25 25 25 26 26 26 25 25 25 23 23 24 23 23 23 22 23 23 24 25 25 25 25 26 26 26 25 25 25 25 25 25 24 23 21 20 19 19 18 19 19 19 19
3 5 8 10 7 5 4 0 2 1 4 3 3 1 7 5 6 11 5 4 11 9 9 13 12 10 10 12 12 9 8 8 9 10 13 16 20 22 23 26 27 26 27 27 27 27 26 26 26 26 26 26 26 26 26 26 26 27 28 28 28 29 28 26 25 25 25 25 25 25 25 25 25 26 27 27 27 27 27 26 25 25 25 25 24 24 24 23 21 20 18 17 17 17 17 21 22
4 4 4 6 6 5 4 4 3 4 3 4 2 2 5 6 7 8 3 6 11 11 13 14 12 13 12 11 10 9 9 10 9 10 12 14 20 24 25 27 28 26 26 27 28 27 27 26 27 27 27 27 27 26 26 27 28 29 28 28 28 30 31 30 29 28 27 27 27 27 27 28 28 28 29 29 28 27 26 26 25 25 25 24 24 24 24 23 22 21 19 18 18 16 15 18 19
5 2 5 6 6 5 4 5 3 2 3 5 3 2 4 8 5 4 1 5 9 11 14 14 14 15 11 9 9 10 10 10 10 10 11 14 21 25 26 26 26 26 26 28 30 28 27 27 27 27 27 28 28 28 28 28 28 29 29 29 30 29 30 32 32 30 29 29 29 30 30 31 31 31 30 29 28 27 26 26 25 24 24 24 24 24 24 23 22 22 20 19 18 17 16 16 17
4 5 7 6 5 5 5 4 3 2 2 6 6 5 3 7 4 2 1 3 7 11 12 12 13 12 9 7 8 8 7 7 7 7 10 15 21 24 24 24 24 25 25 28 28 28 28 28 28 28 28 28 29 29 29 29 29 29 30 31 33 33 33 34 32 31 31 31 32 33 33 34 33 32 31 29 28 27 26 26 25 25 25 25 24 24 24 23 22 21 20 19 18 19 18 17 18
5 6 6 6 5 5 4 2 4 2 4 5 7 10 7 6 3 4 4 5 6 8 7 9 11 10 8 7 6 5 5 5 5 5 8 13 19 21 22 23 24 24 25 27 28 28 29 29 29 29 28 29 29 29 30 30 30 30 31 33 33 34 36 36 35 34 34 35 36 37 36 36 34 33 32 30 29 28 27 26 26 26 26 25 25 24 23 22 21 21 20 19 18 18 18 17 18
5 4 5 4 4 4 4 4 4 0 5 3 3 5 7 7 6 4 5 5 5 7 7 10 11 9 7 6 6 4 4 5 5 5 6 9 13 17 20 22 24 25 26 28 29 30 30 29 30 29 28 29 29 30 31 31 31 31 32 33 32 33 34 36 37 38 38 39 40 39 38 37 35 34 33 31 30 29 28 28 27 27 26 26 25 24 23 22 21 21 20 20 19 18 17 17 17
4 4 5 3 2 3 3 3 1 3 7 3 0 1 4 9 8 8 10 11 10 9 10 11 10 9 8 6 5 3 3 5 5 5 6 7 10 15 20 22 24 25 27 29 30 31 30 30 30 30 29 29 30 31 31 32 33 33 33 33 34 33 33 35 38 41 42 42 42 42 40 39 38 36 34 33 31 30 29 29 28 28 27 26 25 24 23 22 21 21 21 20 20 18 17 16 16
5 5 6 4 2 1 3 3 1 5 6 3 1 2 3 6 5 10 16 15 12 10 10 10 9 10 10 6 3 1 3 4 5 6 7 7 10 16 21 23 24 25 27 29 30 31 31 31 31 30 30 30 31 32 32 31 32 33 34 34 34 33 33 36 40 42 44 44 43 43 42 41 40 38 36 34 32 31 30 29 28 28 27 26 26 25 24 23 22 21 21 20 20 18 16 15 14
5 4 5 5 5 5 4 4 4 5 5 4 2 1 4 3 3 7 10 9 8 8 9 8 7 10 8 5 2 2 3 4 5 6 7 8 13 18 21 23 25 26 28 29 30 31 31 31 32 31 31 31 33 34 34 32 33 34 34 34 34 33 34 38 41 43 45 45 44 43 42 40 39 37 36 35 33 32 31 30 29 28 28 27 26 25 25 24 22 21 21 20 19 18 16 15 14
3 3 4 3 5 5 2 3 5 2 3 4 2 4 5 4 6 8 6 7 7 7 8 7 10 11 7 6 4 4 4 5 5 6 7 9 14 19 21 23 24 26 28 29 30 31 32 32 33 33 33 34 35 36 36 35 34 35 34 34 34 35 36 40 43 44 45 45 44 43 41 40 38 37 37 35 34 32 31 31 30 29 28 27 26 26 25 24 22 21 21 19 19 17 15 14 13
2 3 4 4 4 6 3 2 1 3 3 5 2 5 6 3 7 8 6 8 8 7 8 8 11 11 8 8 5 5 5 5 6 7 7 8 13 18 21 23 24 27 29 30 31 33 33 34 34 34 34 35 36 36 37 36 36 36 35 35 35 37 39 42 44 46 46 44 43 42 41 40 39 38 37 36 34 33 32 31 31 30 29 28 27 26 25 24 22 21 20 18 18 17 15 14 12
5 4 6 3 2 2 3 2 2 3 4 5 1 6 6 3 6 4 1 7 10 10 10 9 9 9 9 10 4 4 6 6 7 7 6 8 12 17 21 23 25 27 30 31 32 33 33 34 35 35 35 36 37 37 37 38 38 37 36 37 37 38 41 43 45 46 46 45 43 42 41 40 39 38 37 36 35 34 33 32 32 31 30 29 28 27 26 25 23 21 20 18 18 17 15 14 12
5 4 5 4 2 2 2 3 2 1 3 5 3 5 4 4 5 2 2 8 11 11 10 8 9 9 9 10 4 3 5 6 6 6 6 7 12 17 21 23 24 27 29 30 31 31 32 33 34 35 36 37 37 37 37 38 38 38 37 37 38 39 42 44 45 46 45 45 44 43 42 41 40 38 37 37 36 35 34 33 32 32 31 30 29 28 27 25 23 21 21 19 18 16 14 14 13
3 2 3 2 2 4 3 3 3 3 3 4 4 5 5 6 6 6 9 11 10 8 7 8 10 11 9 8 4 4 6 6 6 7 6 7 11 17 21 24 25 27 28 30 31 31 32 33 33 34 35 35 37 38 38 38 38 38 38 38 39 40 42 44 44 45 46 45 44 43 42 41 40 39 37 37 36 35 34 33 33 32 32 31 29 28 26 24 22 21 20 19 18 16 14 13 13
4 4 5 3 1 2 1 1 2 4 3 2 2 6 8 6 4 7 10 9 9 9 7 8 9 9 8 6 5 5 6 6 6 7 7 7 11 16 20 23 24 25 27 29 31 32 33 33 34 34 34 35 36 37 38 39 39 38 38 39 41 41 43 44 44 45 45 45 44 43 42 41 40 39 38 37 36 34 34 33 32 32 31 30 28 26 24 23 21 20 19 18 17 16 13 12 12
7 8 8 9 6 4 3 3 1 2 3 4 3 6 11 5 4 6 7 6 7 8 7 7 8 8 6 5 5 6 5 6 7 7 7 7 10 15 19 21 23 25 27 29 30 32 32 33 34 35 35 36 37 37 38 38 39 39 39 40 41 42 43 44 44 44 44 44 43 43 42 41 40 39 37 36 35 34 33 32 32 31 30 28 26 25 23 22 20 19 19 17 16 15 13 12 11
Wind_Direction
343 347 357 8 6 81 40 51 82 339 70 77 324 84 241 249 217 186 265 283 309 307 241 102 91 98 86 132 154 166 149 142 160 127 187 213 75 160 178 154 136 159 164 162 154 153 152 144 140 134 129 130 130 128 128 124 118 118 118 115 110 108 109 110 106 102 99 95 94 91 88 86 83 83 84 83 80 73 68 65 62 60 57 55 52 52 53 54 57 61 67 81 89 89 85 79 79
350 356 15 39 29 51 270 62 95 340 55 85 270 162 254 305 85 188 214 228 184 186 150 107 96 84 63 91 110 110 69 14 164 137 201 156 103 142 175 182 167 167 171 167 160 163 158 149 149 142 139 138 135 132 131 129 125 124 123 119 117 115 109 108 108 106 102 99 96 92 90 87 84 81 80 80 76 70 67 64 61 58 56 53 53 55 57 58 59 61 67 77 84 84 81 80 82
2 7 28 73 39 42 76 46 87 65 75 144 263 240 275 21 203 216 225 205 165 158 150 98 85 74 48 52 53 74 55 334 127 104 270 123 131 122 160 182 176 172 174 173 167 166 162 158 155 147 143 140 138 136 134 133 131 130 128 123 123 122 113 108 108 108 106 102 97 93 90 86 83 80 78 78 74 69 65 61 59 57 54 53 54 57 59 62 62 64 69 75 79 79 78 80 84
16 22 11 114 59 35 60 40 120 117 109 187 247 259 234 175 205 229 235 198 168 132 56 42 61 16 72 69 357 102 102 189 81 92 206 83 98 95 144 155 166 172 172 176 173 168 165 162 156 148 145 143 141 138 137 136 134 134 130 124 124 126 120 112 108 111 108 102 97 94 90 87 82 78 77 76 72 67 62 57 56 55 54 54 56 58 58 62 66 67 70 74 76 77 79 82 85
41 44 43 129 84 50 88 73 109 99 176 185 166 254 243 197 195 219 247 230 238 258 272 70 80 290 80 103 168 132 242 210 46 12 323 87 94 111 149 146 161 170 172 177 175 172 166 162 158 152 149 147 145 142 140 137 134 134 131 124 123 123 120 114 109 110 108 103 99 96 92 88 83 80 79 75 72 66 60 57 56 56 56 57 58 59 58 61 67 71 72 73 75 77 79 83 85
85 64 62 90 79 137 118 98 117 117 216 169 145 247 235 200 195 200 248 316 289 214 191 24 138 166 70 270 167 163 213 14 351 355 4 129 124 141 157 156 163 169 175 178 177 174 168 165 161 157 154 151 148 142 138 136 132 129 127 123 121 119 118 116 112 111 110 105 101 97 92 87 85 84 81 76 73 66 60 56 57 57 57 60 61 62 62 61 68 73 74 74 74 77 81 84 85
125 81 49 70 48 40 100 124 160 185 200 167 164 233 217 201 191 154 165 83 62 101 121 341 125 118 72 298 150 199 143 8 304 8 350 137 141 162 168 173 172 170 175 177 179 176 171 169 165 164 160 155 151 141 133 130 129 125 122 120 119 119 118 117 115 114 112 108 104 99 94 89 89 87 81 77 72 66 59 56 57 58 59 63 65 65 65 66 70 75 76 76 76 79 83 85 86
82 110 25 79 39 24 87 110 174 185 168 227 224 227 216 196 168 136 173 171 177 268 92 302 32 94 283 31 143 228 79 20 325 4 330 143 156 172 176 183 181 175 174 178 182 180 177 174 171 173 168 162 156 146 140 129 126 127 125 123 123 124 121 122 122 120 118 114 109 105 100 94 93 91 84 77 71 66 59 56 59 60 61 64 68 68 68 70 72 74 76 77 78 81 84 85 87
55 49 66 80 77 38 58 57 218 222 272 271 257 239 228 182 152 141 192 146 177 167 161 245 320 55 244 67 274 266 57 43 62 15 338 159 173 175 180 185 187 186 176 179 185 185 181 179 177 176 176 171 163 156 149 138 134 136 134 134 135 135 131 134 134 131 127 123 120 119 111 101 99 97 89 80 73 67 60 58 62 62 62 66 69 70 70 73 74 74 75 76 78 81 84 87 89
37 31 128 77 82 55 36 28 261 246 259 266 265 238 213 167 150 172 178 139 168 150 198 262 70 68 156 151 270 308 61 59 122 123 217 175 168 169 181 183 190 191 182 182 185 188 187 187 182 176 183 178 169 165 158 149 143 143 144 144 147 145 144 147 145 140 135 133 132 130 120 111 108 105 97 87 77 71 64 62 65 65 64 67 69 71 73 75 77 76 75 76 79 82 86 89 90
35 360 99 76 76 102 173 196 255 258 275 300 294 242 201 164 139 117 111 129 166 123 201 291 96 142 108 283 266 275 225 54 119 131 147 169 164 167 174 174 182 185 185 186 184 190 193 194 189 179 182 183 178 170 162 160 152 146 149 150 152 152 153 154 151 147 143 140 135 128 123 116 113 110 104 94 84 76 70 67 69 70 69 70 72 73 74 75 78 79 78 80 83 85 87 87 86
90 347 65 85 123 169 188 166 229 270 313 325 283 269 177 141 132 175 158 144 139 98 218 222 179 144 92 300 268 289 282 155 142 131 132 162 169 171 172 175 178 181 185 187 186 192 195 194 194 189 185 185 188 181 169 167 160 152 155 156 155 154 154 155 153 154 151 144 136 129 125 122 119 113 110 102 90 81 74 73 74 74 74 74 75 75 75 76 77 79 79 82 84 84 83 81 80
118 136 87 96 148 145 150 143 220 303 330 275 205 289 125 137 191 196 158 124 130 131 232 225 191 111 114 260 284 306 264 177 163 140 140 160 177 174 173 179 181 184 184 185 187 192 197 193 191 193 191 194 195 187 179 173 168 163 164 164 163 160 157 159 158 157 159 150 141 138 134 131 127 121 120 112 97 87 78 76 78 79 79 78 77 77 76 76 75 76 76 77 78 78 78 76 75
128 147 104 109 97 116 144 132 216 166 244 256 225 220 137 171 208 176 141 126 183 173 240 245 167 129 155 258 302 289 215 182 171 153 154 160 181 183 175 177 184 189 183 185 186 188 194 193 197 200 191 197 202 194 189 182 176 175 173 173 172 170 167 167 165 164 169 165 158 151 144 136 131 131 131 125 110 94 84 81 84 85 84 81 77 76 75 74 73 72 74 74 76 76 76 75 74
126 131 87 104 77 101 163 156 161 153 223 234 187 155 120 287 142 138 157 154 208 216 15 330 142 164 188 182 243 255 185 181 178 160 165 166 169 182 182 175 181 188 185 188 189 188 190 189 196 207 203 199 204 201 201 194 188 185 179 181 180 178 179 178 177 177 178 176 175 165 153 142 136 142 141 136 124 103 92 89 91 94 90 84 79 77 75 73 71 70 73 75 78 79 78 77 77
114 114 68 89 127 167 179 163 127 128 241 223 227 128 106 313 119 135 231 149 156 325 27 204 38 35 184 183 243 246 163 176 182 166 173 175 162 171 181 177 180 184 183 185 185 182 186 197 201 211 216 201 205 213 213 205 198 195 186 187 188 188 187 184 187 189 189 183 178 174 168 161 151 150 150 147 135 116 102 96 99 103 96 89 84 81 77 74 73 72 72 76 79 81 81 81 81
63 79 70 91 156 188 187 170 167 164 230 237 274 209 127 273 317 159 272 75 115 21 3 249 293 293 201 225 264 159 157 173 181 170 172 176 170 167 170 175 179 182 181 181 183 176 180 200 211 224 230 201 202 208 208 210 206 202 196 194 194 197 194 190 194 194 194 190 181 179 175 174 169 161 159 157 146 131 115 106 106 108 103 96 92 87 81 78 77 77 76 77 80 82 84 85 84
56 79 96 147 178 196 186 176 190 170 188 214 226 185 141 166 203 171 59 36 47 15 338 319 315 291 245 258 199 163 161 169 178 173 172 174 179 181 177 177 179 187 197 205 210 205 200 207 215 232 239 211 201 200 206 215 210 204 203 200 201 205 198 194 197 194 198 197 190 186 180 179 177 175 171 164 156 146 130 115 108 111 109 102 97 91 85 81 79 80 81 82 83 84 85 85 86
85 107 102 198 195 201 194 174 184 162 150 185 196 165 158 182 163 143 191 330 12 108 282 339 329 289 261 238 180 171 165 167 177 176 178 178 182 190 194 195 190 194 207 220 226 225 220 221 224 227 235 223 213 215 213 205 197 198 206 207 212 216 202 197 202 199 201 201 197 193 186 185 181 184 182 170 165 157 144 130 117 115 116 108 101 94 88 85 83 83 85 86 86 87 86 86 86
131 108 103 233 210 217 214 178 190 198 150 151 177 161 174 226 158 155 182 168 334 216 225 240 267 249 225 223 182 167 168 170 177 178 182 186 188 193 197 203 205 205 208 213 216 218 217 221 228 227 228 227 219 221 211 195 196 202 205 210 217 222 205 200 205 204 206 206 205 200 192 187 182 186 188 179 173 168 158 147 134 126 125 115 106 99 91 87 87 89 90 91 90 90 89 88 86
106 103 162 224 184 200 215 190 203 200 160 148 158 130 170 241 164 155 146 142 269 244 224 202 215 218 198 214 195 172 173 172 177 182 183 186 192 195 197 201 204 210 216 219 218 224 227 227 234 234 226 216 211 221 220 203 211 216 210 211 216 214 206 206 208 207 211 212 208 201 192 188 186 187 191 190 185 180 171 161 153 146 136 126 118 109 99 92 91 94 95 95 93 93 93 90 86
71 60 188 195 145 100 210 190 187 159 131 118 132 149 183 179 132 154 153 182 237 230 231 216 213 202 184 190 184 175 177 178 181 186 186 187 192 194 198 201 203 208 215 222 225 230 234 232 234 235 230 222 211 221 227 210 212 219 214 212 216 214 211 214 212 210 216 217 207 201 197 193 191 189 196 199 196 191 181 171 167 163 149 138 133 121 110 103 98 98 99 98 97 96 94 91 87
94 1 319 208 185 357 354 165 175 135 121 141 160 178 143 119 262 185 172 215 227 228 256 236 237 212 179 167 167 175 181 186 189 192 192 191 193 195 198 202 206 213 215 221 225 227 230 228 227 229 230 230 225 222 228 228 223 222 219 216 216 214 211 215 217 215 217 216 204 202 202 201 198 191 202 209 201 195 187 177 174 171 158 149 143 132 123 117 110 105 104 102 102 99 95 93 89
89 94 333 208 191 258 338 55 134 118 133 185 184 126 125 170 222 75 212 237 241 281 291 232 225 182 162 156 167 182 184 191 195 197 198 197 200 200 202 207 211 219 224 227 231 231 231 230 227 226 228 229 230 229 230 234 229 219 218 220 218 213 209 214 218 212 210 211 206 204 200 203 207 198 205 218 211 196 184 175 176 176 162 154 150 144 138 131 129 124 115 110 108 105 99 96 92
63 121 253 122 187 275 315 61 73 62 143 191 119 136 224 201 189 19 245 248 262 327 37 100 131 136 154 165 174 181 183 194 198 199 202 203 204 203 207 213 219 227 234 238 242 243 239 235 232 228 226 226 226 227 229 225 222 220 222 223 215 205 207 212 212 209 208 204 197 197 195 202 211 206 207 220 220 196 180 176 178 175 164 158 154 153 153 142 137 133 124 117 114 110 104 100 98
135 149 218 54 357 320 335 83 54 25 311 78 124 252 293 274 255 270 256 241 161 100 74 92 125 139 167 173 180 183 185 194 195 197 200 202 202 206 211 216 225 235 242 248 251 248 241 237 233 229 226 224 221 224 230 223 219 225 219 211 198 192 205 207 202 207 205 198 200 209 214 218 220 215 211 212 205 183 175 180 181 174 165 162 163 163 163 153 141 135 128 123 119 112 107 106 103
158 131 129 71 349 321 28 67 355 1 276 157 186 249 292 332 323 254 270 181 140 103 91 121 142 166 186 182 197 193 197 200 195 193 195 200 203 207 212 218 228 236 246 252 252 249 246 238 233 231 225 219 216 219 228 224 218 223 216 204 194 195 210 202 198 207 203 205 216 216 219 223 220 216 208 198 191 175 169 176 179 175 169 166 173 174 169 162 148 139 133 128 123 116 113 112 108
95 112 143 2 347 319 49 328 293 320 243 175 162 244 294 359 256 236 281 123 150 124 144 188 174 196 204 204 216 205 213 209 198 197 197 203 207 208 213 220 226 234 246 250 253 251 244 241 237 232 218 210 211 214 221 221 211 216 222 222 212 206 203 194 194 197 194 199 202 195 204 213 208 206 197 188 184 172 164 167 170 172 171 171 178 177 167 163 153 141 137 132 126 122 119 116 112
26 71 158 312 358 349 287 281 264 181 196 180 141 295 283 229 227 244 353 136 124 128 178 213 211 225 233 229 234 223 224 213 205 210 210 210 212 213 217 222 226 234 243 247 253 243 222 236 235 222 209 203 206 210 216 220 206 206 220 225 216 211 200 193 195 195 191 193 197 197 205 206 198 194 189 185 184 172 161 158 161 164 165 166 167 163 158 158 153 142 139 135 130 128 122 118 115
325 41 71 323 2 338 296 14 41 161 173 183 142 280 264 238 244 261 75 152 127 157 213 223 227 240 243 238 240 238 232 219 215 217 217 216 216 218 219 220 225 234 237 234 236 212 201 224 218 208 205 199 203 206 211 217 208 200 211 210 208 213 198 189 193 197 194 193 202 207 201 197 191 187 187 187 183 171 160 153 154 155 156 159 159 161 159 156 152 144 141 137 133 130 125 121 118
15 16 46 16 11 285 294 342 139 153 181 164 136 244 267 261 265 284 216 171 158 201 225 223 231 239 239 240 238 242 238 227 226 223 220 218 218 220 219 217 220 229 228 219 212 197 204 213 208 205 202 199 201 202 203 206 199 188 197 195 190 198 188 182 183 184 186 186 195 196 187 183 181 180 183 183 174 167 162 156 155 155 156 160 160 161 162 158 152 145 143 139 134 132 127 123 119
35 335 312 350 164 269 304 288 166 157 338 33 136 229 276 273 274 302 254 184 180 216 233 230 234 236 234 239 235 240 247 239 237 232 225 220 219 220 219 215 213 220 220 214 206 202 210 209 206 203 200 198 195 195 193 192 187 179 185 186 183 191 184 175 170 167 170 171 179 179 174 172 172 173 174 175 170 165 164 158 157 157 158 162 158 155 154 150 145 140 141 141 135 132 128 122 119
360 67 248 268 173 277 315 309 223 201 68 345 202 234 283 278 276 320 151 179 194 234 249 241 234 236 233 235 236 237 246 247 242 235 228 220 218 219 218 214 210 215 216 212 206 206 211 207 202 200 199 195 187 190 187 183 183 178 179 179 178 186 182 171 164 163 166 171 177 174 168 163 165 169 167 171 170 165 166 160 155 152 152 153 148 143 140 137 138 139 138 138 136 133 130 124 120
319 18 237 242 198 219 300 311 293 35 100 219 231 238 257 263 269 300 189 179 190 227 245 243 237 238 235 235 239 238 235 239 237 229 224 218 215 215 216 212 210 213 212 209 208 208 209 205 199 194 195 192 185 188 187 180 177 171 171 174 177 179 180 177 170 168 171 178 178 169 166 160 160 169 166 166 167 162 162 156 149 145 145 144 141 139 140 142 146 147 141 137 138 136 132 127 122
196 188 200 253 242 218 260 284 250 128 99 227 218 243 257 267 274 265 219 183 191 225 242 249 248 241 237 236 236 237 233 236 234 222 218 215 211 212 211 207 209 210 206 209 210 207 205 204 199 191 192 192 184 183 182 176 171 167 169 175 177 173 172 174 169 167 166 170 168 161 164 163 161 168 166 166 166 158 154 148 143 142 144 145 146 145 147 150 150 149 143 137 136 134 132 128 123
160 172 153 178 225 255 235 251 259 196 151 235 225 234 253 264 271 267 238 180 201 240 259 263 254 243 238 237 237 234 232 237 232 217 214 212 209 210 207 205 210 207 205 209 208 206 203 201 197 189 190 188 183 181 179 178 175 172 171 168 166 163 163 164 162 163 161 165 167 160 161 161 158 161 161 162 158 152 147 143 141 142 148 152 150 145 144 146 146 143 139 136 134 130 127 126 125
120 126 134 180 204 269 252 251 285 238 169 247 232 232 256 260 265 268 243 159 218 248 254 255 250 241 236 234 237 233 233 239 222 211 212 208 207 207 204 205 208 206 207 210 206 204 203 201 196 188 187 186 185 181 176 176 171 163 162 161 158 156 158 159 158 161 161 163 164 156 152 153 156 156 155 154 151 149 147 143 144 148 154 154 146 141 141 143 143 141 137 136 135 131 127 126 127
93 125 169 244 212 254 257 242 300 309 176 265 263 245 259 258 262 270 251 169 229 234 235 247 244 239 237 234 239 235 233 231 194 203 205 202 203 202 201 203 205 206 207 207 204 202 201 200 196 190 187 185 181 177 170 170 168 163 164 163 159 156 156 158 157 157 158 158 156 151 149 152 156 155 154 155 153 153 151 148 150 150 149 147 140 137 139 142 142 143 141 136 136 134 130 131 132
94 117 155 255 243 274 283 286 326 4 188 271 303 269 265 264 264 267 256 232 239 233 226 238 240 239 239 234 238 235 228 219 196 196 196 198 200 198 198 200 203 207 205 203 203 201 198 197 195 191 188 183 177 175 173 173 172 170 170 165 160 157 155 156 155 152 152 154 153 149 149 153 157 158 158 159 157 156 154 150 147 144 142 141 136 135 138 141 142 145 146 142 139 136 134 139 143
147 143 159 237 240 267 281 294 329 246 207 282 306 287 276 270 269 264 252 240 247 249 239 241 241 239 242 239 235 228 224 219 202 196 194 196 198 197 197 198 200 203 202 201 200 198 195 194 194 191 187 184 181 180 179 178 174 170 167 163 160 156 152 151 150 147 150 154 153 148 150 158 163 162 160 160 158 154 152 146 142 138 136 134 134 136 140 142 144 147 148 148 146 140 137 141 149
245 196 194 219 222 216 233 285 327 323 338 5 335 304 277 252 257 258 264 281 265 257 254 256 250 239 245 253 246 230 223 215 200 196 193 192 198 198 197 196 197 198 200 201 199 196 194 193 193 190 187 186 187 188 187 182 175 167 160 152 148 144 142 145 147 145 149 155 154 152 157 163 165 161 158 157 154 150 148 144 141 137 134 133 133 135 139 142 145 148 149 152 153 149 144 132 128
280 233 206 215 219 226 249 339 7 349 329 346 12 305 280 270 260 259 281 329 275 259 257 259 256 245 239 247 247 234 222 214 201 196 193 194 198 197 195 194 195 198 201 201 199 196 195 193 190 187 187 189 188 190 190 185 178 172 167 158 151 144 140 145 151 150 152 157 157 158 160 161 161 158 154 153 151 148 145 142 140 138 136 135 134 132 134 138 142 146 151 154 153 152 147 130 119
277 254 208 212 210 218 250 238 63 278 263 302 52 217 276 292 265 262 257 256 265 264 259 259 260 255 236 237 244 233 217 212 203 198 193 193 194 192 193 194 195 198 199 200 198 196 195 193 189 187 188 190 190 188 187 185 180 176 174 170 165 159 154 153 157 157 158 160 160 160 160 159 159 156 152 151 149 146 143 141 140 139 137 135 134 132 132 133 135 137 142 145 140 141 143 130 120
241 261 165 174 183 199 214 170 187 240 262 315 31 132 276 276 258 271 233 225 265 269 262 264 261 256 245 240 242 229 216 206 199 199 193 192 193 192 194 194 195 197 195 196 195 194 194 192 190 190 190 191 192 190 187 186 183 178 174 170 165 163 160 158 160 160 159 160 160 160 159 156 156 153 151 149 147 145 143 142 141 139 136 134 133 132 131 132 132 131 131 130 128 129 132 127 122
246 228 119 133 153 164 138 133 192 290 6 303 292 129 275 268 251 320 2 218 259 262 255 259 257 257 253 245 239 229 221 208 200 198 191 192 194 195 195 192 193 194 193 194 194 192 193 192 191 191 191 192 193 190 187 184 183 180 175 170 164 161 160 157 159 160 159 160 160 158 156 154 153 152 150 148 147 146 145 143 142 139 135 134 133 131 129 129 128 127 126 125 124 121 120 121 119
210 132 96 81 79 83 85 112 141 46 342 252 227 164 253 274 220 111 38 218 242 249 251 255 255 260 262 252 246 235 225 209 200 196 189 192 194 195 194 190 190 192 192 194 192 191 192 192 191 191 192 193 192 191 187 182 181 180 176 171 165 161 159 156 156 157 158 160 158 156 155 154 153 152 151 150 149 148 146 143 141 139 136 134 132 129 128 127 125 124 123 122 122 119 118 118 118
141 109 71 51 37 43 53 53 87 50 285 249 210 181 192 275 255 173 207 214 216 231 250 263 261 267 268 263 264 247 219 195 188 184 180 186 190 191 190 188 188 189 191 192 191 191 191 191 191 191 192 194 193 191 188 184 183 181 178 174 168 163 160 158 157 157 157 159 157 155 155 155 155 154 153 151 150 148 146 144 141 138 136 133 131 129 128 127 126 125 124 123 121 119 119 118 116
107 92 80 65 349 11 25 355 49 167 262 264 241 189 183 241 257 224 247 262 237 218 232 253 258 266 268 267 279 258 196 174 171 169 167 168 176 184 187 187 186 187 188 189 189 190 190 190 190 190 191 194 193 190 188 186 184 182 179 176 172 168 166 166 164 162 161 161 158 157 157 157 157 156 155 153 151 150 147 145 142 139 136 134 133 131 131 131 130 130 129 128 125 122 121 119 117
87 102 109 103 323 353 349 307 55 232 256 261 280 152 210 242 250 248 257 264 250 224 223 240 253 270 269 263 275 264 167 158 164 167 170 169 174 183 187 186 186 186 187 188 188 188 188 188 188 189 190 192 192 188 186 186 184 183 181 179 176 174 175 175 171 167 165 164 162 162 161 161 159 158 157 155 152 151 150 146 144 141 139 137 136 136 135 136 136 135 134 132 129 125 124 122 121
161 149 144 146 152 155 265 271 280 268 270 274 166 158 247 269 260 238 238 245 247 235 232 237 247 262 267 274 284 252 165 165 173 175 178 184 186 187 188 187 186 187 188 188 188 188 187 187 188 189 189 191 191 189 187 187 187 186 184 182 181 179 180 179 175 170 168 168 167 166 165 164 162 160 159 157 154 153 152 148 146 144 142 141 141 140 140 140 140 138 136 133 130 128 129 127 125
186 157 141 162 166 171 216 220 227 263 286 294 280 191 207 216 258 243 235 254 272 260 249 247 254 257 261 283 282 166 185 186 183 188 191 195 192 189 190 189 188 187 188 188 188 189 188 187 188 190 190 190 191 190 190 189 189 188 187 186 186 185 185 182 177 173 172 171 171 170 168 166 164 162 160 158 157 155 153 150 149 147 146 146 146 145 144 144 144 141 137 135 133 132 134 131 126
219 127 119 196 191 160 183 209 183 189 313 298 242 226 218 209 271 270 248 270 285 276 270 264 265 263 259 266 235 175 199 200 190 200 202 200 194 192 192 191 189 187 187 189 189 189 190 190 191 192 192 192 190 190 191 192 192 190 190 191 190 188 186 182 177 175 174 175 174 172 170 168 166 163 162 160 159 158 156 153 152 151 150 150 150 149 148 148 148 145 142 140 137 137 139 134 129
164 140 180 215 176 131 122 258 66 74 272 271 208 248 285 319 283 266 245 265 277 287 284 259 257 268 275 272 241 181 204 202 199 210 205 198 193 193 196 193 191 188 188 191 191 191 192 192 191 192 192 193 191 191 193 194 194 193 193 195 193 190 187 184 180 178 176 176 175 173 172 170 168 166 164 162 161 160 159 157 156 156 155 155 154 154 153 152 151 148 145 144 141 142 144 136 132
129 179 203 171 98 91 108 220 349 41 254 271 246 253 286 313 279 298 321 263 261 258 257 251 263 275 275 276 263 182 205 204 211 218 206 199 194 194 197 196 195 192 192 193 193 194 194 194 193 192 192 192 192 194 194 195 196 195 195 196 195 192 189 186 183 180 178 177 176 175 174 172 170 168 166 164 164 163 163 162 161 160 160 160 160 160 158 156 155 151 148 148 147 148 149 142 138
130 183 187 130 140 212 123 165 211 182 249 280 295 282 273 211 232 274 202 227 238 245 245 247 261 259 255 268 268 186 206 206 214 219 205 200 197 196 197 197 197 196 195 195 195 195 195 196 196 195 196 196 196 196 195 196 197 196 197 198 196 194 190 187 184 181 180 180 179 178 176 174 172 171 169 168 167 167 166 167 167 165 165 166 165 164 162 159 158 155 153 152 151 153 155 150 146
66 105 157 126 147 177 164 159 171 175 226 278 316 318 278 217 202 199 213 222 221 232 243 235 240 241 241 251 237 200 210 209 208 209 207 201 198 199 198 197 197 196 195 196 195 196 196 196 197 197 198 198 197 197 196 196 197 197 197 197 196 194 191 188 185 183 182 182 182 180 178 176 175 174 173 171 171 171 171 171 171 170 171 171 170 166 163 162 161 159 157 155 154 157 158 153 152
154 159 175 187 110 114 163 163 132 141 156 200 291 294 272 239 182 188 212 227 216 211 224 230 233 238 237 227 212 211 211 211 211 204 204 201 197 199 199 199 199 196 195 195 195 197 197 197 198 198 199 198 197 197 197 197 197 197 196 195 195 194 191 189 187 185 185 185 184 183 180 179 177 176 176 175 175 175 175 175 176 176 176 174 171 167 164 164 163 161 160 160 158 158 159 157 158
180 184 190 188 168 138 173 225 206 138 156 179 185 267 269 243 176 201 211 224 225 208 208 236 244 237 236 230 217 216 208 207 210 201 195 193 191 195 197 198 199 196 195 195 195 196 196 197 198 198 199 200 198 197 197 197 197 197 197 196 195 194 192 190 188 187 187 187 186 184 183 182 180 179 179 179 178 178 179 180 180 180 179 176 172 169 167 167 167 164 164 164 161 160 164 165 167